User: anonymous   Login
Location: Banksville Park
(38.5557°N, 75.1182°W)
Time: 11:27:35
(UTC+00:00)
Language:

ARIANE 5 R/B - Orbit

View from above orbital plane
View from above orbital plane
View from above satellite
View from above satellite

Ground track
Ground track

The orbit data is extracted from the following two-line orbital elements,

1 27387U 02009B   20329.60086046 +.00000000 +00000-0 +15420-4 0  9990
2 27387 098.6310 283.2455 0032636 008.3221 351.8499 14.36005252981815
Epoch (UTC): 24 November 2020 14:25:14
Eccentricity: 0.0032636
inclination: 98.6310°
perigee height: 748 km
apogee height: 795 km
right ascension of ascending node: 283.2455°
argument of perigee: 8.3221°
revolutions per day: 14.36005252
mean anomaly at epoch: 351.8499°
orbit number at epoch: 98181

The dashed part of the orbit path shows where the satellite is in the earth's shadow,  

DLR